Regional Weather Roundup
Issued by NWS

Home | Current Version | Previous Version | Graphics & Text | Print | Product List | Glossary On
Versions: 1 2 3 4 5 6 7 8 9 10 11 12 13 14 15 16 17 18 19 20 21 22 23 24 25 26 27 28 29 30 31 32 33 34 35 36 37 38 39 40 41 42 43 44 45 46 47 48 49 50
663
ASUS43 KLMK 190102
RWRKY
KENTUCKY REGIONAL WEATHER ROUNDUP
NATIONAL WEATHER SERVICE LOUISVILLE KY
900 PM EDT WED OCT 18 2017

NOTE "FAIR" INDICATES FEW OR NO CLOUDS BELOW 12,000 FEET
WITH NO SIGNIFICANT WEATHER AND/OR OBSTRUCTIONS TO VISIBILITY.

KYZ001>023-026-027-061>063-070>075-190200-
WESTERN AND SOUTH CENTRAL KENTUCKY

CITY           SKY/WX    TMP DP  RH WIND       PRES   REMARKS
PADUCAH        CLEAR     62  45  53 CALM      30.18R
HENDERSON      CLEAR     55  47  74 S6        30.19S
OWENSBORO      CLEAR     58  48  69 SE6       30.20S
HOPKINSVILLE   CLEAR     59  47  64 SE5       30.21R
BOWLING GREEN  CLEAR     55  47  74 CALM      30.23R
GLASGOW        NOT AVBL
$$

KYZ024-025-028>034-038-045-046-053-190200-
NORTH CENTRAL KENTUCKY

CITY           SKY/WX    TMP DP  RH WIND       PRES   REMARKS
LOUISVILLE/SDF CLEAR     61  48  62 S6        30.21S
LOUISVILLE/LOU CLEAR     60  48  64 SE3       30.22S
FORT KNOX      CLEAR     54  47  77 S3        30.20S
$$

KYZ035>037-039>044-047>052-055>060-089>105-190200-
NORTHEAST KENTUCKY

CITY           SKY/WX    TMP DP  RH WIND       PRES   REMARKS
LEXINGTON      CLEAR     58  45  62 S6        30.24S
COVINGTON      CLEAR     55  46  71 S5        30.21S
FRANKFORT      CLEAR     52  44  74 CALM      30.22S
$$

KYZ054-064>069-076>088-106>120-190200-
SOUTHEAST KENTUCKY

CITY           SKY/WX    TMP DP  RH WIND       PRES   REMARKS
JACKSON        CLOUDY    60  41  49 CALM      30.26S
LONDON         CLEAR     53  48  83 CALM      30.26S
SOMERSET       NOT AVBL
MIDDLESBORO    CLEAR     52  47  82 W3        30.29S
MONTICELLO     CLEAR     46  44  93 CALM      30.28R
$$





USA.gov is the U.S. government's official web portal to all federal, state and local government web resources and services.